Location: 22
(39.7117°N, 89.5929°W)
Time: 10:17:06
(UTC-05:00)

Transit 2A - Pass Details

Date: 04 August 2024
Orbit: 590 x 961 km, 66.7° (Epoch: 13 September)

Event Time Altitude Azimuth Distance (km) Brightness Sun altitude
Rises 03:44:40 0° 147° (SSE) 3,166 - -22.1°
Exits shadow 03:44:43 - 147° (SSE) 3,152 9.0 -22.1°
Maximum altitude 03:50:13 10° 99° (E) 2,386 9.0 -21.3°
Drops below altitude 10° 03:51:33 - 85° (E) 2,479 9.3 -21.2°
Sets 03:56:08 0° 52° (NE) 3,462 10.9 -20.6°
